"2009-04-03 00:00:30",766417,3.182,323,5.805,1.163,8.68,103.563,8.4,9.54,24.71,0,110.2,13.32,9.18,285.0
"2009-04-03 00:01:00",766418,3.526,331.3,5.528,1.294,8.38,103.5647,8.4,9.47,24.75,0,110.2,13.32,9.18,293.3
"2009-04-03 00:01:30",766419,2.982,336.5,10.52,1.192,8.35,103.5629,8.4,9.6,24.99,0,110.2,13.32,9.18,298.5
"2009-04-03 00:02:00",766420,2.002,325,2.978,0.178,6.292,103.5638,8.4,9.44,24.87,0,110.2,13.36,9.18,287.0
"2009-04-03 00:02:30",766421,1.78,332.9,9.96,0.274,6.52,103.5649,8.4,9.44,24.79,0,110.2,13.36,9.18,294.9
"2009-04-03 00:03:00",766422,3.129,329.9,9.45,1.277,8.94,103.5742,8.43,9.64,24.86,0,110.2,13.33,9.21,291.9
"2009-04-03 00:03:30",766423,2.041,318.4,9.86,0.236,6.844,103.5903,8.47,9.48,24.6,0,110.2,13.37,9.25,280.4
"2009-04-03 00:04:00",766424,3.934,334.7,10.44,1.362,8.89,103.5867,8.46,9.62,24.69,0,110.2,13.33,9.24,296.7
"2009-04-03 00:04:30",766425,3.408,331.9,6.939,1.052,8.25,103.5966,8.48,9.66,24.62,0,110.2,13.33,9.26,293.9
"2009-04-03 00:05:00",766426,4.28,325,7.789,1.348,8.5,103.5994,8.49,9.55,24.43,0,110.2,13.33,9.27,287.0
"2009-04-03 00:05:30",766427,3.419,319.3,6.997,0.95,8.16,103.6002,8.49,9.64,24.44,0,110.2,13.33,9.27,281.3
"2009-04-03 00:06:00",766428,3.335,315.9,5.3,0.691,7.222,103.5982,8.49,9.54,24.26,0,110.3,13.33,9.27,277.9
"2009-04-03 00:06:30",766429,4.016,319.7,6.01,1.264,8.8,103.5985,8.49,9.61,24.23,0,110.2,13.33,9.27,281.7
"2009-04-03 00:07:00",766430,3.019,312.4,6.456,0.901,7.722,103.6014,8.49,9.7,24.16,0,110.2,13.33,9.28,274.4
"2009-04-03 00:07:30",766431,3.676,319.4,9.9,1.27,8.5,103.6087,8.51,9.66,24.16,0,110.2,13.33,9.30,281.4
"2009-04-03 00:08:00",766432,4.116,326.1,7.37,1.166,8.43,103.6011,8.49,9.61,24.19,0,110.3,13.33,9.28,288.1
"2009-04-03 00:08:30",766433,3.426,320.3,11.91,1.418,8.55,103.6056,8.51,9.76,24.45,0,110.3,13.33,9.29,282.3
"2009-04-03 00:09:00",766434,4.004,324.8,7.286,1.044,7.988,103.6226,8.55,9.58,24.37,0,110.3,13.33,9.33,286.8
"2009-04-03 00:09:30",766435,3.119,314.2,4.566,0.464,6.464,103.6326,8.57,9.56,24.25,0,110.2,13.33,9.36,276.2
"2009-04-03 00:10:00",766436,3.784,313.2,3.96,0.52,7.353,103.6368,8.59,9.7,23.96,0,110.3,13.33,9.37,275.2
"2009-04-03 00:10:30",766437,4.77,324.5,6.812,1.131,10.25,103.6397,8.59,9.74,23.79,0,110.2,13.33,9.37,286.5
"2009-04-03 00:11:00",766438,4.06,323.4,6.538,1.272,9.06,103.6414,8.6,9.73,23.85,0,110.2,13.33,9.38,285.4
"2009-04-03 00:11:30",766439,3.696,313.1,8.1,1.185,8.61,103.6429,8.6,9.7,23.89,0,110.2,13.33,9.38,275.1
"2009-04-03 00:12:00",766440,4.32,313,5.469,1.386,7.722,103.6443,8.6,9.82,23.93,0,110.2,13.33,9.39,275.0
"2009-04-03 00:12:30",766441,5.251,316.5,6.246,1.309,8.34,103.6458,8.61,9.63,23.62,0,110.2,13.33,9.39,278.5
"2009-04-03 00:13:00",766442,5.01,320.5,5.734,1.046,8.23,103.6487,8.62,9.72,23.6,0,110.2,13.33,9.40,282.5
"2009-04-03 00:13:30",766443,4.863,324.9,3.324,0.579,6.892,103.6473,8.61,9.61,23.51,0,110.2,13.33,9.39,286.9
"2009-04-03 00:14:00",766444,5.075,329.8,7.678,1.244,9.79,103.6439,8.6,9.82,23.85,0,110.2,13.33,9.39,291.8
"2009-04-03 00:14:30",766445,5.879,334.2,7.66,1.543,10.35,103.6349,8.58,9.87,23.8,0,110.2,13.33,9.36,296.2
"2009-04-03 00:15:00",766446,5.361,328,9.9,1.284,9.68,103.6265,8.56,9.83,23.8,0,110.2,13.33,9.34,290.0
"2009-04-03 00:15:30",766447,6.161,344.4,5.463,1.066,10.15,103.6201,8.54,9.71,23.54,0,110.2,13.33,9.32,306.4
"2009-04-03 00:16:00",766448,4.117,336.6,8.3,1.106,8.02,103.6195,8.54,9.74,23.38,0,110.2,13.33,9.32,298.6
"2009-04-03 00:16:30",766449,4.608,343.4,4.116,0.965,7.457,103.6204,8.54,9.58,23.27,0,110.2,13.33,9.33,305.4
"2009-04-03 00:17:00",766450,4.224,336.6,3.258,0.168,6.785,103.621,8.54,9.58,23.26,0,110.3,13.36,9.33,298.6
"2009-04-03 00:17:30",766451,6.128,347.4,7.794,1.368,10.57,103.6207,8.54,9.8,23.6,0,110.2,13.33,9.33,309.4
"2009-04-03 00:18:00",766452,6.126,350,6.899,0.857,11.69,103.6046,8.5,9.81,23.48,0,110.3,13.33,9.28,312.0
"2009-04-03 00:18:30",766453,4.721,347.8,9.3,1.447,9.68,103.5883,8.46,9.72,23.35,0,110.2,13.33,9.24,309.8
"2009-04-03 00:19:00",766454,4.564,346.5,4.609,1.258,8.66,103.5871,8.46,9.63,23.33,0,110.2,13.33,9.24,308.5
"2009-04-03 00:19:30",766455,4.718,342.1,5.619,1.277,7.8,103.5871,8.46,9.69,23.3,0,110.2,13.33,9.24,304.1
"2009-04-03 00:20:00",766456,5.102,343.8,2.216,0.202,6.517,103.5869,8.46,9.51,23.15,0,110.2,13.37,9.24,305.8
"2009-04-03 00:20:30",766457,4.181,348.3,5.754,0.695,7.037,103.5795,8.44,9.5,23.18,0,110.2,13.37,9.22,310.3
"2009-04-03 00:21:00",766458,5.826,358.7,6.311,1.278,11.01,103.5572,8.38,9.78,23.46,0,110.2,13.34,9.16,320.7
"2009-04-03 00:21:30",766459,6.893,355.4,6.12,1.04,12.09,103.5533,8.37,9.83,23.48,0,110.2,13.34,9.15,317.4
"2009-04-03 00:22:00",766460,6.124,342.5,7.071,1.289,10.86,103.5533,8.37,9.76,23.56,0,110.2,13.34,9.15,304.5
"2009-04-03 00:22:30",766461,4.832,343.5,9.6,0.788,7.971,103.5479,8.36,9.5,23.29,0,110.2,13.34,9.14,305.5
"2009-04-03 00:23:00",766462,4.042,338.2,8.78,0.986,7.435,103.5333,8.32,9.51,22.94,0,110.2,13.34,9.10,300.2
"2009-04-03 00:23:30",766463,3.48,346,2.82,0.217,6.571,103.5194,8.29,9.39,23.13,0,110.2,13.37,9.07,308.0
"2009-04-03 00:24:00",766464,3.816,342.8,2.335,0.288,6.903,103.5194,8.29,9.39,23.24,0,110.2,13.38,9.07,304.8
"2009-04-03 00:24:30",766465,5.713,347.3,8.32,1.163,10.41,103.5189,8.28,9.6,23.41,0,110.3,13.34,9.06,309.3
"2009-04-03 00:25:00",766466,5.91,356.5,9.94,1.225,12.46,103.5076,8.26,9.66,23.47,0,110.2,13.34,9.04,318.5
"2009-04-03 00:25:30",766467,5.702,4.036,7.671,0.769,11.83,103.4865,8.2,9.61,23.54,0,110.2,13.34,8.98,326.0
"2009-04-03 00:26:00",766468,4.31,355.6,5.756,1.186,8.81,103.4862,8.2,9.46,23.52,0,110.2,13.34,8.98,317.6
"2009-04-03 00:26:30",766469,2.749,351,5.043,0.533,6.374,103.4882,8.21,9.31,23.31,0,110.2,13.38,8.99,313.0
"2009-04-03 00:27:00",766470,1.622,2.472,6.407,0.419,6.298,103.4821,8.19,9.29,23.31,0,110.2,13.38,8.97,324.5
"2009-04-03 00:27:30",766471,2.173,355.1,5.546,0.326,6.533,103.4676,8.15,9.26,23.31,0,110.2,13.38,8.93,317.1
"2009-04-03 00:28:00",766472,2.932,356.4,4.483,1.142,7.294,103.4632,8.14,9.26,23.14,0,110.2,13.35,8.92,318.4
"2009-04-03 00:28:30",766473,3.698,359.7,9.86,1.429,9.37,103.4655,8.15,9.44,23.26,0,110.2,13.35,8.93,321.7
"2009-04-03 00:29:00",766474,4.311,19.92,9.04,1.204,11.62,103.4689,8.16,9.49,23.35,0,110.2,13.35,8.94,341.9
"2009-04-03 00:29:30",766475,4.078,11.65,8.41,1.255,11.3,103.4495,8.11,9.53,23.41,0,110.2,13.35,8.89,333.6
"2009-04-03 00:30:00",766476,2.39,359.8,10.6,1.096,8.16,103.4468,8.1,9.27,23.17,0,110.2,13.34,8.88,321.8
"2009-04-03 00:30:30",766477,2.135,11.14,3.601,0.178,5.762,103.4509,8.11,9.19,23.18,0,110.2,13.38,8.89,333.1
"2009-04-03 00:31:00",766478,1.642,13.16,1.526,0.08,5.699,103.4515,8.11,9.16,23.23,0,110.2,13.38,8.89,335.2
"2009-04-03 00:31:30",766479,1.542,20.82,2.216,0.113,6.088,103.4476,8.1,9.14,23.28,0,110.2,13.38,8.88,342.8
"2009-04-03 00:32:00",766480,1.793,26.78,5.99,0.871,7.756,103.429,8.05,9.28,23.4,0,110.2,13.35,8.83,348.8
"2009-04-03 00:32:30",766481,1.976,28.47,5.792,1.075,7.748,103.4191,8.03,9.19,23.37,0,110.2,13.35,8.81,350.5
"2009-04-03 00:33:00",766482,2.231,27.95,12.89,1.357,9.31,103.4191,8.03,9.23,23.48,0,110.1,13.35,8.81,350.0
"2009-04-03 00:33:30",766483,2.225,39.69,14.71,1.214,10.67,103.4191,8.03,9.35,23.45,0,110.2,13.35,8.81,1.7
"2009-04-03 00:34:00",766484,1.668,60.86,97.6,1.405,9.61,103.416,8.02,9.32,23.45,0,110.1,13.35,8.80,22.9
"2009-04-03 00:34:30",766485,1.738,202.8,8.82,1.401,8.71,103.4078,8,9.19,23.38,0,110.1,13.35,8.78,164.8
"2009-04-03 00:35:00",766486,0.409,270.2,46.58,0.184,5.795,103.3951,7.967,9.06,23.25,0,110.1,13.39,8.75,232.2
"2009-04-03 00:35:30",766487,0.65,315,15.72,0.248,5.334,103.3852,7.942,9.03,23.25,0,110.1,13.39,8.72,277.0
"2009-04-03 00:36:00",766488,1.198,315.8,12.66,0.2,5.559,103.3852,7.942,9.03,23.21,0,110.1,13.39,8.72,277.8
"2009-04-03 00:36:30",766489,1.327,305.2,5.935,0.222,5.99,103.3852,7.942,9.01,23.22,0,110.1,13.39,8.72,267.2
"2009-04-03 00:37:00",766490,1.225,304.8,4.874,0.194,6.576,103.3852,7.942,9,23.21,0,110.1,13.4,8.72,266.8
"2009-04-03 00:37:30",766491,1.008,304.9,11.09,0.279,7.105,103.3852,7.942,8.99,23.36,0,110.1,13.36,8.72,266.9
"2009-04-03 00:38:00",766492,1.94,0.809,19.28,1.189,10.14,103.3852,7.942,9.19,23.56,0,110.1,13.36,8.72,322.8
"2009-04-03 00:38:30",766493,3.292,353.8,10.95,1.215,11.22,103.3838,7.939,9.24,23.79,0,110.1,13.36,8.72,315.8
"2009-04-03 00:39:00",766494,2.249,330.4,14.26,1.209,9.03,103.379,7.926,9.21,23.87,0,110.1,13.36,8.71,292.4
"2009-04-03 00:39:30",766495,2.143,337.9,9.61,1.157,8.19,103.3773,7.922,8.97,23.68,0,110.1,13.36,8.70,299.9
"2009-04-03 00:40:00",766496,1.856,319.6,4.995,0.807,7.238,103.3759,7.918,9.12,23.91,0,110.1,13.36,8.70,281.6
"2009-04-03 00:40:30",766497,2.35,322.6,5.614,1.223,7.187,103.3748,7.915,8.95,23.75,0,110.1,13.36,8.70,284.6
"2009-04-03 00:41:00",766498,1.576,317.2,3.243,0.113,6.065,103.3703,7.904,8.95,23.74,0,110.1,13.4,8.68,279.2
"2009-04-03 00:41:30",766499,1.278,309,7.347,0.085,6.404,103.3536,7.861,8.94,23.7,0,110.1,13.4,8.64,271.0
"2009-04-03 00:42:00",766500,1.753,314.3,8.59,0.244,7.053,103.3514,7.856,9.02,23.75,0,110.1,13.4,8.64,276.3
"2009-04-03 00:42:30",766501,4.152,323.5,7.815,1.214,10.67,103.3514,7.856,9.09,23.85,0,110.1,13.36,8.64,285.5
"2009-04-03 00:43:00",766502,4.203,315.2,11.99,0.708,11.95,103.3514,7.856,9.16,23.97,0,110.2,13.36,8.64,277.2
"2009-04-03 00:43:30",766503,3.038,303.6,7.375,1.331,9.03,103.3514,7.856,9.02,23.9,0,110.1,13.36,8.64,265.6
"2009-04-03 00:44:00",766504,1.853,290.4,5.669,0.102,6.87,103.3525,7.859,8.89,23.83,0,110.1,13.4,8.64,252.4
"2009-04-03 00:44:30",766505,3.083,287.2,10.52,1.316,8.75,103.352,7.857,9.07,24.05,0,110.1,13.36,8.64,249.2
"2009-04-03 00:45:00",766506,2.939,231.4,15.44,0.63,6.506,103.3461,7.842,8.91,24.12,0,110.1,13.4,8.62,193.4
"2009-04-03 00:45:30",766507,2.367,236,8.42,0.371,6.66,103.3377,7.821,8.87,24.21,0,110.1,13.4,8.60,198.0
"2009-04-03 00:46:00",766508,1.568,237.4,7.224,0.25,6.95,103.3248,7.788,8.86,24.24,0,110.1,13.4,8.57,199.4
"2009-04-03 00:46:30",766509,2.16,251.1,14.85,1.249,9.25,103.3277,7.795,8.99,24.39,0,110.1,13.36,8.57,213.1
"2009-04-03 00:47:00",766510,3.11,282.9,11.64,1.317,11.55,103.3292,7.799,9.12,24.55,0,110.1,13.36,8.58,244.9
"2009-04-03 00:47:30",766511,1.423,262.3,16.96,1.112,9.05,103.3307,7.803,9.05,24.54,0,110.1,13.36,8.58,224.3
"2009-04-03 00:48:00",766512,1.835,283.3,16.78,1.317,8.24,103.3374,7.82,8.85,24.34,0,110.1,13.36,8.60,245.3
"2009-04-03 00:48:30",766513,1.636,278.4,10.66,0.356,6.401,103.3385,7.823,8.8,24.33,0,110.1,13.4,8.60,240.4
"2009-04-03 00:49:00",766514,2.038,288.9,7.374,0.514,7.252,103.3395,7.825,8.94,24.45,0,110.1,13.4,8.60,250.9
"2009-04-03 00:49:30",766515,3.121,293.5,6.385,1.206,8.23,103.3376,7.821,8.82,24.32,0,110.1,13.36,8.60,255.5
"2009-04-03 00:50:00",766516,2.288,266.4,7.298,0.417,6.817,103.3361,7.817,8.79,24.4,0,110.1,13.4,8.60,228.4
"2009-04-03 00:50:30",766517,2.822,268.5,7.317,0.268,7.471,103.3293,7.799,8.88,24.58,0,110.1,13.4,8.58,230.5
"2009-04-03 00:51:00",766518,5.77,270.5,7.661,0.907,11.73,103.3198,7.775,9.03,24.74,0,110.1,13.36,8.55,232.5
"2009-04-03 00:51:30",766519,6.605,264.4,5.271,1.063,12.01,103.3178,7.77,9.05,24.85,0,110.1,13.37,8.55,226.4
"2009-04-03 00:52:00",766520,5.448,260.8,7.687,1.328,9.89,103.3186,7.772,8.94,24.83,0,110.1,13.37,8.55,222.8
"2009-04-03 00:52:30",766521,5.057,261.7,6.516,1.104,8.01,103.3186,7.772,8.77,24.76,0,110.1,13.37,8.55,223.7
"2009-04-03 00:53:00",766522,7.063,247.4,7.445,1.622,9.04,103.3186,7.772,8.9,24.94,0,110.1,13.37,8.55,209.4
"2009-04-03 00:53:30",766523,6.668,236,2.862,0.456,7.182,103.313,7.758,8.76,24.6,0,110.1,13.41,8.54,198.0
"2009-04-03 00:54:00",766524,7.63,242.1,9.19,1.642,9.33,103.3037,7.734,8.92,24.66,0,110.1,13.37,8.51,204.1
"2009-04-03 00:54:30",766525,9.68,255.7,5.824,0.987,11.79,103.2893,7.697,9.02,24.48,0,110.1,13.37,8.48,217.7
"2009-04-03 00:55:00",766526,9.06,263.1,7.493,1.119,11.36,103.2848,7.685,8.99,24.34,0,110.1,13.37,8.46,225.1
"2009-04-03 00:55:30",766527,7.916,256.8,6.278,0.958,9.19,103.2848,7.685,8.93,24.14,0,110.1,13.37,8.46,218.8
"2009-04-03 00:56:00",766528,8.7,267,6.961,1.243,9.36,103.2848,7.685,8.77,24.02,0,110.1,13.37,8.46,229.0
"2009-04-03 00:56:30",766529,7.862,263.3,5.828,0.781,8.21,103.2825,7.68,8.85,24.09,0,110,13.37,8.46,225.3
"2009-04-03 00:57:00",766530,8.04,262.2,7.073,1,9.44,103.26,7.622,8.82,23.94,0,110,13.37,8.40,224.2
"2009-04-03 00:57:30",766531,8.75,267,7.558,1.088,11.71,103.2509,7.599,8.92,24.11,0,110.1,13.38,8.38,229.0
"2009-04-03 00:58:00",766532,8.37,268.5,8.18,1.378,11.35,103.2509,7.599,8.91,24.07,0,110.1,13.38,8.38,230.5
"2009-04-03 00:58:30",766533,7.754,265.2,6.075,1.126,9.92,103.2509,7.599,8.96,24.16,0,110.1,13.38,8.38,227.2
"2009-04-03 00:59:00",766534,7.978,267.3,7.653,1.051,9.33,103.2495,7.595,8.7,23.89,0,110.1,13.38,8.37,229.3
"2009-04-03 00:59:30",766535,7.612,266.2,6.57,1.025,8.94,103.2331,7.553,8.78,23.95,0,110.1,13.38,8.33,228.2
"2009-04-03 01:00:00",766536,8.14,265.6,6.292,1.374,9.17,103.2179,7.514,8.73,24.17,0,110,13.38,8.29,227.6
"2009-04-03 01:00:30",766537,8.55,274.4,5.64,1.091,11.3,103.2174,7.513,8.9,24.26,0,110,13.38,8.29,236.4
"2009-04-03 01:01:00",766538,8.33,268.2,4.754,1.255,11.07,103.2171,7.512,8.82,24.16,0,110,13.38,8.29,230.2
"2009-04-03 01:01:30",766539,8.26,274.3,6.392,1.295,10.33,103.2174,7.513,8.8,24.04,0,110,13.38,8.29,236.3
"2009-04-03 01:02:00",766540,7.941,271.7,6.537,1.175,9.2,103.2208,7.522,8.64,23.94,0,110,13.38,8.30,233.7
"2009-04-03 01:02:30",766541,8.05,271.1,6.323,1.312,9.37,103.2167,7.511,8.71,24.18,0,110,13.38,8.29,233.1
"2009-04-03 01:03:00",766542,7.413,274.5,7.603,1.21,9.02,103.2106,7.496,8.72,24.23,0,110,13.38,8.27,236.5
"2009-04-03 01:03:30",766543,8.5,279.7,5.918,1.189,11.02,103.2,7.469,8.74,24.29,0,110,13.37,8.25,241.7
"2009-04-03 01:04:00",766544,9.03,276.3,6.051,1.191,11.44,103.1983,7.464,8.79,24.41,0,110,13.37,8.24,238.3
"2009-04-03 01:04:30",766545,8.96,277.1,5.427,1.454,11.07,103.2062,7.485,8.76,24.35,0,110,13.37,8.26,239.1
"2009-04-03 01:05:00",766546,9.64,274.5,8.6,1.092,9.54,103.21,7.494,8.69,23.98,0,110,13.38,8.27,236.5
"2009-04-03 01:05:30",766547,8.95,274.9,6.514,1.478,8.71,103.2126,7.501,8.59,23.94,0,110,13.37,8.28,236.9
"2009-04-03 01:06:00",766548,10.89,277.9,6.532,1.218,10.41,103.2155,7.508,8.71,23.99,0,110,13.38,8.29,239.9
"2009-04-03 01:06:30",766549,10.68,282.4,6.202,1.287,10.33,103.2167,7.511,8.71,24.14,0,110,13.38,8.29,244.4
"2009-04-03 01:07:00",766550,10.3,281.5,7.368,1.306,11.01,103.2173,7.513,8.73,23.99,0,110,13.38,8.29,243.5
"2009-04-03 01:07:30",766551,9.09,276.1,7.906,1.45,9.62,103.2176,7.514,8.71,23.81,0,110,13.38,8.29,238.1
"2009-04-03 01:08:00",766552,7.819,270,5.424,1.027,8.71,103.215,7.507,8.67,24.1,0,110,13.38,8.29,232.0
"2009-04-03 01:08:30",766553,8.73,280.1,5.82,1.178,10.14,103.2125,7.501,8.59,24.01,0,110,13.38,8.28,242.1
"2009-04-03 01:09:00",766554,9.03,282.9,6.282,1.396,10.11,103.2105,7.496,8.66,24.39,0,110,13.38,8.27,244.9
"2009-04-03 01:09:30",766555,8.48,279.8,6.7,1.36,8.93,103.2085,7.491,8.55,23.99,0,110,13.38,8.27,241.8
"2009-04-03 01:10:00",766556,9.48,286.3,6.197,1.337,10.91,103.2038,7.478,8.69,24.06,0,110,13.39,8.26,248.3
"2009-04-03 01:10:30",766557,9.89,287.8,7.275,1.338,10.66,103.1964,7.46,8.67,24.17,0,110,13.39,8.24,249.8
"2009-04-03 01:11:00",766558,10.52,284.8,6.242,1.165,10.54,103.186,7.433,8.68,24.02,0,110,13.39,8.21,246.8
"2009-04-03 01:11:30",766559,9.93,287.3,7.38,1.388,9.63,103.1843,7.429,8.67,24,0,110,13.39,8.21,249.3
"2009-04-03 01:12:00",766560,10.09,285.6,7.312,1.252,10.31,103.1843,7.429,8.68,23.81,0,110,13.39,8.21,247.6
"2009-04-03 01:12:30",766561,8.68,274.1,4.589,1.211,7.663,103.1843,7.429,8.52,23.64,0,110,13.39,8.21,236.1
"2009-04-03 01:13:00",766562,9.47,287.5,5.089,1.186,10.5,103.1843,7.429,8.68,24.14,0,110,13.39,8.21,249.5
"2009-04-03 01:13:30",766563,9.36,290.8,6.96,1.365,10.1,103.1843,7.429,8.56,23.94,0,110,13.39,8.21,252.8
"2009-04-03 01:14:00",766564,8.48,292.3,7.406,1.235,10.5,103.1843,7.429,8.68,24.3,0,110,13.39,8.21,254.3
"2009-04-03 01:14:30",766565,7.714,285.3,6.211,1.258,9.95,103.1837,7.427,8.62,24.4,0,110,13.39,8.21,247.3
"2009-04-03 01:15:00",766566,8.09,281.2,9.4,1.331,9.3,103.1693,7.39,8.52,24.27,0,110,13.39,8.17,243.2
"2009-04-03 01:15:30",766567,7.559,280.9,5.068,1.083,7.789,103.1552,7.354,8.45,23.87,0,110,13.39,8.13,242.9
"2009-04-03 01:16:00",766568,8.6,283.7,6.28,1.306,10.6,103.1507,7.343,8.67,23.83,0,110,13.4,8.12,245.7
"2009-04-03 01:16:30",766569,8.62,287.9,6.874,1.18,10.33,103.1504,7.342,8.54,23.72,0,110,13.4,8.12,249.9
"2009-04-03 01:17:00",766570,8.52,280.5,6.968,1.245,10.18,103.1507,7.343,8.59,24,0,110,13.4,8.12,242.5
"2009-04-03 01:17:30",766571,7.947,283.4,7.089,1.061,10.73,103.1507,7.343,8.63,24.13,0,110,13.4,8.12,245.4
"2009-04-03 01:18:00",766572,7.032,290.8,8.02,1.504,9.27,103.1536,7.35,8.55,23.99,0,110,13.4,8.13,252.8
"2009-04-03 01:18:30",766573,6.819,284.7,8.26,1.126,8.06,103.1542,7.352,8.38,23.91,0,110,13.4,8.13,246.7
"2009-04-03 01:19:00",766574,8.51,284.1,6.204,1.522,9.67,103.1568,7.358,8.61,24.62,0,110,13.39,8.14,246.1
"2009-04-03 01:19:30",766575,7.621,280.6,7.985,1.29,10.25,103.1577,7.361,8.55,24.84,0,110,13.39,8.14,242.6
"2009-04-03 01:20:00",766576,6.661,278.2,8.78,1.203,9.97,103.1566,7.358,8.59,24.98,0,110,13.39,8.14,240.2
"2009-04-03 01:20:30",766577,7.731,281.3,9.33,1.281,10.48,103.1472,7.334,8.61,25.02,0,110,13.39,8.11,243.3
"2009-04-03 01:21:00",766578,8.89,278.5,8.62,1.439,9.5,103.136,7.305,8.56,25.23,0,110,13.39,8.08,240.5
"2009-04-03 01:21:30",766579,8.81,274.3,8.37,1.233,8.9,103.1387,7.312,8.39,25.18,0,110,13.39,8.09,236.3
"2009-04-03 01:22:00",766580,9.68,272.7,6.506,1.454,9.19,103.1401,7.316,8.55,25.29,0,110,13.39,8.09,234.7
"2009-04-03 01:22:30",766581,9.59,274.9,6.639,1.21,10.86,103.1424,7.322,8.48,25.06,0,110,13.4,8.10,236.9
"2009-04-03 01:23:00",766582,10.13,282.5,5.616,1.26,11.28,103.1454,7.329,8.56,24.75,0,110,13.39,8.11,244.5
"2009-04-03 01:23:30",766583,10.02,282.3,6.331,1.141,10.77,103.1407,7.317,8.54,24.78,0,110,13.4,8.09,244.3
"2009-04-03 01:24:00",766584,9.38,284.1,6.272,1.109,10.26,103.1356,7.304,8.54,24.79,0,110,13.4,8.08,246.1
"2009-04-03 01:24:30",766585,8.65,281.4,7.195,1.357,9.16,103.1252,7.278,8.34,24.88,0,110,13.4,8.06,243.4
"2009-04-03 01:25:00",766586,8.08,281.6,4.902,1.159,8.69,103.1179,7.259,8.5,25.06,0,110,13.4,8.04,243.6
"2009-04-03 01:25:30",766587,9.13,281.9,6.076,1.258,10.28,103.1176,7.258,8.47,25.03,0,110,13.4,8.04,243.9
"2009-04-03 01:26:00",766588,8.94,284.8,7.069,1.228,11.12,103.1176,7.258,8.5,25.21,0,110,13.4,8.04,246.8
"2009-04-03 01:26:30",766589,9.13,284.3,6.35,1.094,10.82,103.1176,7.258,8.49,25.19,0,110,13.4,8.04,246.3
"2009-04-03 01:27:00",766590,8.61,278.8,6.552,1.355,9.53,103.1176,7.258,8.34,25.11,0,110,13.41,8.04,240.8
"2009-04-03 01:27:30",766591,7.894,277.8,7.008,1.297,9.18,103.1176,7.258,8.46,25.18,0,110,13.41,8.04,239.8
"2009-04-03 01:28:00",766592,7.933,284.6,7.26,1.219,9.82,103.1156,7.253,8.37,25.15,0,110,13.41,8.03,246.6
"2009-04-03 01:28:30",766593,7.973,287,6.457,1.515,9.1,103.1097,7.238,8.42,25.18,0,110,13.41,8.02,249.0
"2009-04-03 01:29:00",766594,9.58,292.4,6.933,1.128,10.82,103.1023,7.219,8.45,25.23,0,110,13.41,8.00,254.4
"2009-04-03 01:29:30",766595,8.99,297.6,5.806,1.125,11.09,103.0958,7.203,8.45,25.1,0,110,13.41,7.98,259.6
"2009-04-03 01:30:00",766596,7.815,291.6,7.06,1.098,9.19,103.0854,7.176,8.44,25.14,0,110,13.41,7.95,253.6
"2009-04-03 01:30:30",766597,8.32,288,5.098,1.425,9.08,103.084,7.172,8.37,25.05,0,110,13.41,7.95,250.0
"2009-04-03 01:31:00",766598,8.29,291.8,5.984,1.242,9.55,103.0837,7.171,8.44,25.11,0,109.9,13.41,7.95,253.8
"2009-04-03 01:31:30",766599,8.04,289.3,5.605,1.134,9.93,103.0837,7.171,8.32,25.07,0,109.9,13.41,7.95,251.3
"2009-04-03 01:32:00",766600,7.885,292.3,7.517,1.382,9.72,103.0837,7.171,8.41,25.21,0,109.9,13.41,7.95,254.3
"2009-04-03 01:32:30",766601,7.809,293.9,6.722,1.387,9.85,103.0837,7.171,8.33,25.15,0,109.9,13.41,7.95,255.9
"2009-04-03 01:33:00",766602,6.724,294.4,6.437,1.085,9,103.0837,7.171,8.41,25.14,0,109.9,13.41,7.95,256.4
"2009-04-03 01:33:30",766603,6.969,293.1,7.801,1.286,9.67,103.0837,7.171,8.4,24.86,0,109.9,13.41,7.95,255.1
"2009-04-03 01:34:00",766604,6.478,291.9,7.046,1.26,8.54,103.0837,7.171,8.23,24.31,0,109.9,13.41,7.95,253.9
"2009-04-03 01:34:30",766605,7.164,291.2,6.422,1.357,10.2,103.0837,7.171,8.39,24.11,0,109.9,13.41,7.95,253.2
"2009-04-03 01:35:00",766606,7.365,298.6,6.336,1.204,10.37,103.0837,7.171,8.4,24.23,0,109.9,13.41,7.95,260.6
"2009-04-03 01:35:30",766607,7.58,295.6,6.246,1.287,10.32,103.0834,7.171,8.27,24.54,0,109.9,13.41,7.95,257.6
"2009-04-03 01:36:00",766608,7.639,283.1,4.877,1.683,9.56,103.0837,7.171,8.37,24.72,0,109.9,13.41,7.95,245.1
"2009-04-03 01:36:30",766609,8.15,279.7,6.24,1.081,10.21,103.0843,7.173,8.36,24.86,0,109.9,13.41,7.95,241.7
"2009-04-03 01:37:00",766610,8.57,273.8,6.336,1.65,9.3,103.0846,7.174,8.33,25.07,0,109.9,13.41,7.95,235.8
"2009-04-03 01:37:30",766611,8.15,278.6,6.471,1.42,9.66,103.0846,7.174,8.29,25.25,0,109.9,13.41,7.95,240.6
"2009-04-03 01:38:00",766612,9.46,279.6,5.172,1.271,10.44,103.0833,7.17,8.42,25.56,0,109.9,13.41,7.95,241.6
"2009-04-03 01:38:30",766613,9.01,270.5,5.472,1.251,8.86,103.0808,7.164,8.31,25.74,0,109.9,13.41,7.94,232.5
"2009-04-03 01:39:00",766614,8.76,273.5,7.819,1.345,9.74,103.0772,7.155,8.44,25.96,0,109.9,13.41,7.93,235.5
"2009-04-03 01:39:30",766615,8.03,279.6,7.898,1.327,9.85,103.0759,7.151,8.4,25.89,0,109.9,13.41,7.93,241.6
"2009-04-03 01:40:00",766616,7.288,276,6.464,1.045,8.09,103.0705,7.138,8.36,25.69,0,109.9,13.41,7.91,238.0
"2009-04-03 01:40:30",766617,8.84,273.9,4.939,1.267,9.08,103.0675,7.13,8.38,25.87,0,109.9,13.41,7.91,235.9
"2009-04-03 01:41:00",766618,8.7,274.2,6.057,1.078,10.4,103.0722,7.142,8.38,26.08,0,109.9,13.42,7.92,236.2
"2009-04-03 01:41:30",766619,7.182,269.5,5.089,1.067,8.35,103.0757,7.151,8.36,26.09,0,109.9,13.42,7.93,231.5
"2009-04-03 01:42:00",766620,8.95,276.9,8.07,1.166,10.11,103.0775,7.156,8.37,26.13,0,109.9,13.42,7.93,238.9
"2009-04-03 01:42:30",766621,7.822,280.7,8.38,1.237,10.32,103.0778,7.156,8.38,26.19,0,109.9,13.42,7.93,242.7
"2009-04-03 01:43:00",766622,6.903,267.2,5.44,0.847,7.337,103.0733,7.145,8.14,25.93,0,109.9,13.42,7.92,229.2
"2009-04-03 01:43:30",766623,8.4,282.5,10,1.742,8.86,103.0524,7.092,8.27,26.25,0,109.9,13.42,7.87,244.5
"2009-04-03 01:44:00",766624,10.55,277.9,6.229,1.352,10.31,103.0474,7.079,8.33,26.21,0,109.9,13.42,7.86,239.9
"2009-04-03 01:44:30",766625,10.51,273.8,5.991,1.309,10.75,103.0497,7.085,8.38,26.19,0,109.9,13.42,7.86,235.8
"2009-04-03 01:45:00",766626,11.14,274.1,5.151,1.263,11.02,103.0503,7.086,8.31,26.1,0,109.9,13.42,7.86,236.1
"2009-04-03 01:45:30",766627,9.84,276.8,7.054,1.199,10.41,103.0506,7.087,8.33,26.14,0,109.9,13.42,7.86,238.8
"2009-04-03 01:46:00",766628,9.48,272.9,5.746,1.203,8.78,103.0506,7.087,8.17,26.1,0,109.9,13.42,7.86,234.9
"2009-04-03 01:46:30",766629,9.45,276.8,6.744,1.251,8.91,103.0508,7.088,8.27,26.2,0,109.9,13.42,7.86,238.8
"2009-04-03 01:47:00",766630,10.53,283.8,5.722,1.213,10.94,103.05,7.085,8.26,26.26,0,109.9,13.42,7.86,245.8
"2009-04-03 01:47:30",766631,10.48,280.9,6.307,1.236,9.86,103.0458,7.075,8.18,25.92,0,109.9,13.42,7.85,242.9
"2009-04-03 01:48:00",766632,10.86,283.7,6.337,1.248,11.04,103.039,7.057,8.29,25.99,0,109.9,13.42,7.83,245.7
"2009-04-03 01:48:30",766633,10.86,287.8,6.645,1.227,10.71,103.037,7.052,8.26,25.57,0,109.9,13.42,7.83,249.8
"2009-04-03 01:49:00",766634,10.06,289.6,6.503,1.135,10.34,103.0376,7.054,8.22,25.25,0,109.9,13.42,7.83,251.6
"2009-04-03 01:49:30",766635,9.01,284.6,5.029,0.969,8.84,103.0381,7.055,8.21,25.54,0,109.9,13.43,7.83,246.6
"2009-04-03 01:50:00",766636,9.36,281.2,4.875,1.108,8.68,103.0412,7.063,8.17,25.71,0,109.9,13.43,7.84,243.2
"2009-04-03 01:50:30",766637,9.78,280.5,5.835,1.451,10.06,103.0426,7.067,8.19,25.84,0,109.9,13.43,7.84,242.5
"2009-04-03 01:51:00",766638,10.7,281.8,5.092,1.1,10.82,103.0432,7.068,8.26,26.04,0,109.9,13.43,7.84,243.8
"2009-04-03 01:51:30",766639,11.13,282.5,5.67,1.096,10.99,103.0438,7.069,8.27,26.14,0,109.9,13.42,7.85,244.5
"2009-04-03 01:52:00",766640,11.21,285,5.212,0.974,11.28,103.046,7.075,8.32,26.2,0,109.9,13.42,7.85,247.0